Weather History for Quillayute, WA

Change the Weather History Date:

Friday, March 29, 2013

  Actual Average Record
Temperature  
Mean Temperature 52 °F 45 °F  
Max Temperature 62 °F 53 °F 67 °F (1995)
Min Temperature 41 °F 38 °F 24 °F (1998)
Degree Days  
Heating Degree Days 13 20  
Month to date heating degree days 564 608  
Since 1 July heating degree days 4257 4453  
Cooling Degree Days 0 0  
Month to date cooling degree days 0 0  
Year to date cooling degree days 0 0  
Growing Degree Days 3 (Base 50)    
Moisture  
Dew Point 44 °F    
Average Humidity 77    
Maximum Humidity 93    
Minimum Humidity 60    
Precipitation  
Precipitation 0.00 in 0.33 in 1.80 in (2012)
Month to date precipitation 15.99 10.17  
Year to date precipitation 38.10 35.13  
Sea Level Pressure  
Sea Level Pressure 30.23 in    
Wind  
Wind Speed 3 mph (NW)    
Max Wind Speed 14 mph    
Max Gust Speed 21 mph    
Visibility 4 miles    
Events Fog    
T = Trace of Precipitation, MM = Missing Value Source: NWS Daily Summary

Daily Weather History Graph

Daily Weather History Graph

Search for Another Location

Airport:

Trip Planner

Search our weather history database for the weather conditions in past years. The results will help you decide how hot, cold, wet, or windy it might be!

Date:

Astronomy

Mar. 29, 2013 Rise Set
Actual Time 7:01 AM PDT 7:44 PM PDT
Civil Twilight 6:30 AM PDT 8:15 PM PDT
Nautical Twilight 5:53 AM PDT 8:53 PM PDT
Astronomical Twilight 5:14 AM PDT 9:32 PM PDT
Moon 11:07 PM PDT (3/29) 8:01 AM PDT (3/29)
Length of Visible Light 13h 45m
Length of Day
12h 42m
Waning Gibbous, 93% of the Moon is Illuminated
Mar 29
Waning Gibbous
Apr 2
Last Quarter
Apr 10
New
Apr 18
First Quarter
Apr 25
Full

Hourly Weather History & Observations

Time (PDT) Temp. Windchill Dew Point Humidity Pressure Visibility Wind Dir Wind Speed Gust Speed Precip Events Conditions
12:00 AM 48.2 °F - 44.6 °F 87% 30.16 in 0.2 mi Calm Calm - N/A Fog Fog
12:53 AM 48.0 °F - 46.0 °F 93% 30.17 in 0.2 mi Calm Calm - N/A Fog Fog
1:53 AM 48.0 °F - 45.0 °F 89% 30.17 in 0.2 mi Calm Calm - N/A Fog Fog
2:53 AM 48.0 °F - 45.0 °F 89% 30.19 in 0.2 mi Calm Calm - N/A Fog Fog
3:27 AM 48.2 °F - 46.4 °F 93% 30.19 in 0.5 mi Calm Calm - N/A Fog Fog
3:37 AM 48.2 °F - 46.4 °F 93% 30.19 in 0.2 mi Calm Calm - N/A Fog Fog
3:53 AM 48.0 °F - 45.0 °F 89% 30.19 in 0.2 mi Calm Calm - N/A Fog Fog
4:31 AM 48.2 °F - 44.6 °F 87% 30.20 in 0.5 mi Calm Calm - N/A Fog Fog
4:39 AM 48.2 °F - 44.6 °F 87% 30.20 in 0.2 mi Calm Calm - N/A Fog Fog
4:53 AM 48.0 °F - 45.0 °F 89% 30.21 in 0.5 mi WSW 3.5 mph - N/A Fog Fog
5:08 AM 48.2 °F - 44.6 °F 87% 30.21 in 0.2 mi West 4.6 mph - N/A Fog Fog
5:15 AM 48.2 °F - 44.6 °F 87% 30.21 in 0.5 mi WSW 3.5 mph - N/A Fog Fog
5:53 AM 48.0 °F - 45.0 °F 89% 30.22 in 1.0 mi Calm Calm - N/A   Overcast
6:11 AM 48.2 °F - 44.6 °F 87% 30.22 in 0.8 mi Calm Calm - N/A   Mist
6:53 AM 46.9 °F - 44.1 °F 90% 30.23 in 0.5 mi Calm Calm - N/A Fog Fog
7:19 AM 46.4 °F - 44.6 °F 93% 30.23 in 0.2 mi Calm Calm - N/A Fog Fog
7:53 AM 46.9 °F - 44.1 °F 90% 30.24 in 0.2 mi Calm Calm - N/A Fog Fog
8:53 AM 48.0 °F - 45.0 °F 89% 30.24 in 0.5 mi Calm Calm - N/A Fog Fog
9:10 AM 48.2 °F - 44.6 °F 87% 30.24 in 1.2 mi Calm Calm - N/A   Overcast
9:17 AM 48.2 °F - 44.6 °F 87% 30.24 in 1.8 mi Calm Calm - N/A   Overcast
9:38 AM 48.2 °F - 44.6 °F 87% 30.25 in 2.0 mi Calm Calm - N/A   Overcast
9:53 AM 48.0 °F - 45.0 °F 89% 30.26 in 2.0 mi Calm Calm - N/A   Overcast
10:02 AM 48.2 °F - 44.6 °F 87% 30.25 in 1.8 mi WNW 3.5 mph - N/A   Overcast
10:13 AM 48.2 °F - 44.6 °F 87% 30.26 in 2.0 mi Calm Calm - N/A   Overcast
10:31 AM 48.2 °F - 44.6 °F 87% 30.26 in 5.0 mi Calm Calm - N/A   Overcast
10:53 AM 50.0 °F - 45.0 °F 83% 30.26 in 7.0 mi Calm Calm - N/A   Overcast
11:24 AM 51.8 °F - 44.6 °F 76% 30.26 in 8.0 mi Calm Calm - N/A   Overcast
11:53 AM 52.0 °F - 46.0 °F 80% 30.27 in 9.0 mi Variable 4.6 mph - N/A   Overcast
12:22 PM 53.6 °F - 46.4 °F 77% 30.26 in 9.0 mi West 5.8 mph - N/A   Overcast
12:51 PM 57.2 °F - 46.4 °F 67% 30.25 in 9.0 mi Variable 3.5 mph - N/A   Scattered Clouds
12:53 PM 57.9 °F - 46.9 °F 67% 30.26 in 9.0 mi Calm Calm - N/A   Partly Cloudy
1:53 PM 61.0 °F - 46.9 °F 60% 30.25 in 9.0 mi Variable 5.8 mph - N/A   Clear
2:53 PM 61.0 °F - 46.0 °F 58% 30.24 in 9.0 mi North 5.8 mph - N/A   Clear
3:53 PM 61.0 °F - 46.0 °F 58% 30.23 in 9.0 mi Variable 6.9 mph - N/A   Clear
4:53 PM 57.9 °F - 45.0 °F 62% 30.24 in 8.0 mi NW 8.1 mph - N/A   Clear
5:53 PM 54.0 °F - 43.0 °F 66% 30.24 in 8.0 mi NNW 9.2 mph 18.4 mph N/A   Clear
6:53 PM 52.0 °F - 43.0 °F 71% 30.23 in 7.0 mi WNW 3.5 mph - N/A   Clear
7:53 PM 48.0 °F - 42.1 °F 80% 30.23 in 6.0 mi NNW 3.5 mph - N/A   Haze
8:53 PM 46.0 °F 44.8 °F 41.0 °F 83% 30.25 in 7.0 mi Variable 3.5 mph - N/A   Clear
9:53 PM 45.0 °F 43.5 °F 41.0 °F 86% 30.25 in 6.0 mi North 3.5 mph - N/A   Clear
10:53 PM 44.1 °F - 39.9 °F 85% 30.26 in 6.0 mi Calm Calm - N/A   Clear
11:53 PM 42.1 °F 40.2 °F 39.0 °F 89% 30.26 in 5.0 mi NE 3.5 mph - N/A   Clear